Montague, CA

2:53 AM PDT on March 26, 2017 (GMT -0700)
Siskiyou County

Weather History for KSIY - October, 2013

Change the Weather History Date:

Wednesday, October 30, 2013

  Actual Average Record
Temperature  
Mean Temperature 46 °F 46 °F  
Max Temperature 61 °F 59 °F 74 °F (1949)
Min Temperature 30 °F 33 °F 19 °F (1971)
Degree Days  
Heating Degree Days 19 19  
Month to date heating degree days 476 392  
Since 1 July heating degree days 623 534  
Cooling Degree Days 0 0  
Month to date cooling degree days 0 0  
Year to date cooling degree days 776 542  
Moisture  
Dew Point 33 °F    
Average Humidity 68    
Maximum Humidity 89    
Minimum Humidity 36    
Precipitation  
Precipitation 0.00 in 0.07 in 2.12 in (1956)
Month to date precipitation 0.08 1.13  
Year to date precipitation 5.15 12.77  
Sea Level Pressure  
Sea Level Pressure 30.19 in    
Wind  
Wind Speed 2 mph (North)    
Max Wind Speed 9 mph    
Max Gust Speed 11 mph    
Visibility 10 miles    
Events      
T = Trace of Precipitation, MM = Missing Value Source: NWS Daily Summary

Daily Weather History Graph

Daily Weather History Graph

Search for Another Location

Airport or City:

Trip Planner

Search our weather history database for the weather conditions in past years. The results will help you decide how hot, cold, wet, or windy it might be!

Date:

Astronomy

Oct. 30, 2013 Rise Set
Actual Time 7:40 AM PDT 6:06 PM PDT
Civil Twilight 7:11 AM PDT 6:35 PM PDT
Nautical Twilight 6:38 AM PDT 7:07 PM PDT
Astronomical Twilight 6:06 AM PDT 7:40 PM PDT
Moon 3:31 AM PDT (10/30) 3:57 PM PDT (10/30)
Length of Visible Light 11h 23m
Length of Day
10h 26m
Waning Crescent, 16% of the Moon is Illuminated
Oct 30
Waning Crescent
Nov 3
New
Nov 9
First Quarter
Nov 17
Full
Nov 25
Last Quarter

Hourly Weather History & Observations

Time (PDT) Temp. Windchill Dew Point Humidity Pressure Visibility Wind Dir Wind Speed Gust Speed Precip Events Conditions
12:53 AM 37.9 °F 34.4 °F 33.1 °F 83% 30.12 in 10.0 mi NNE 4.6 mph - N/A   Overcast
1:53 AM 39.0 °F 36.8 °F 33.1 °F 79% 30.12 in 10.0 mi NE 3.5 mph - N/A   Overcast
2:53 AM 39.0 °F - 34.0 °F 82% 30.12 in 10.0 mi Calm Calm - N/A   Overcast
3:53 AM 39.0 °F - 34.0 °F 82% 30.12 in 10.0 mi Calm Calm - N/A   Overcast
4:53 AM 37.0 °F - 33.1 °F 86% 30.13 in 10.0 mi Calm Calm - N/A   Overcast
5:53 AM 37.9 °F - 33.1 °F 83% 30.14 in 10.0 mi Calm Calm - N/A   Overcast
6:53 AM 36.0 °F - 32.0 °F 86% 30.17 in 10.0 mi Calm Calm - N/A   Clear
7:53 AM 32.0 °F 27.5 °F 28.0 °F 85% 30.20 in 10.0 mi North 4.6 mph - N/A   Mostly Cloudy
8:53 AM 35.1 °F - 32.0 °F 89% 30.23 in 10.0 mi Calm Calm - N/A   Clear
9:53 AM 39.9 °F - 34.0 °F 79% 30.25 in 10.0 mi Calm Calm - N/A   Clear
10:53 AM 46.0 °F - 36.0 °F 68% 30.25 in 10.0 mi Calm Calm - N/A   Clear
11:53 AM 48.9 °F - 36.0 °F 61% 30.24 in 10.0 mi Calm Calm - N/A   Clear
12:53 PM 52.0 °F - 36.0 °F 54% 30.20 in 10.0 mi Calm Calm - N/A   Clear
1:53 PM 57.0 °F - 35.1 °F 44% 30.17 in 10.0 mi NW 4.6 mph - N/A   Clear
2:53 PM 59.0 °F - 35.1 °F 41% 30.15 in 10.0 mi Calm Calm - N/A   Clear
3:53 PM 59.0 °F - 35.1 °F 41% 30.15 in 10.0 mi NW 3.5 mph - N/A   Clear
4:53 PM 61.0 °F - 34.0 °F 36% 30.16 in 10.0 mi Calm Calm - N/A   Clear
5:53 PM 55.9 °F - 34.0 °F 44% 30.17 in 10.0 mi North 3.5 mph - N/A   Clear
6:53 PM 46.9 °F - 34.0 °F 61% 30.20 in 10.0 mi North 8.1 mph - N/A   Clear
7:53 PM 46.0 °F 42.5 °F 33.1 °F 61% 30.24 in 10.0 mi North 6.9 mph - N/A   Clear
8:53 PM 42.1 °F 37.1 °F 32.0 °F 67% 30.25 in 10.0 mi North 8.1 mph - N/A   Clear
9:53 PM 42.1 °F - 32.0 °F 67% 30.25 in 10.0 mi Calm Calm - N/A   Clear
10:53 PM 39.9 °F - 30.9 °F 70% 30.26 in 10.0 mi Calm Calm - N/A   Clear
11:53 PM 36.0 °F 33.3 °F 28.0 °F 73% 30.27 in 10.0 mi NE 3.5 mph - N/A   Clear